RYR13PB EDDB-EYVI

Flight info

Callsign RYR13PB
Flight time 1h 5m
Altitude 37000
Route GERGA4B/06L GERGA Y218 ALUKA L29 GRUDA N858 BOKSU DCT IRKAL
Aircraft B38M/M-SDE1FGHILORVWXY/HB1

Departure

Time 2026-05-05 15:49
Airport Berlin Brandenburg Airport (EDDB)

Arrival

Time 2026-05-05 16:54
Airport Vilnius International Airport (EYVI)
Time Latitude Longitude Altitude Speed Heading
2026-05-05 15:19 52.36789 13.50740 157 ft 0 kts 159°
2026-05-05 15:39 52.36791 13.50739 157 ft 2 kts 159°
2026-05-05 15:40 52.36816 13.50724 157 ft 4 kts 159°
2026-05-05 15:40 52.36840 13.50708 157 ft 4 kts 159°
2026-05-05 15:40 52.36861 13.50695 157 ft 0 kts 159°
2026-05-05 15:43 52.36856 13.50694 157 ft 1 kts 193°
2026-05-05 15:43 52.36844 13.50645 157 ft 10 kts 255°
2026-05-05 15:43 52.36815 13.50505 157 ft 15 kts 249°
2026-05-05 15:43 52.36776 13.50341 157 ft 12 kts 248°
2026-05-05 15:44 52.36747 13.50218 157 ft 10 kts 248°
2026-05-05 15:44 52.36726 13.50129 157 ft 8 kts 249°
2026-05-05 15:44 52.36740 13.50053 157 ft 8 kts 334°
2026-05-05 15:44 52.36786 13.49993 157 ft 9 kts 280°
2026-05-05 15:45 52.36764 13.49884 157 ft 11 kts 249°
2026-05-05 15:45 52.36730 13.49740 157 ft 16 kts 249°
2026-05-05 15:45 52.36683 13.49541 157 ft 22 kts 249°
2026-05-05 15:45 52.36621 13.49281 157 ft 27 kts 249°
2026-05-05 15:46 52.36552 13.48990 157 ft 28 kts 249°
2026-05-05 15:46 52.36494 13.48747 157 ft 22 kts 248°
2026-05-05 15:46 52.36435 13.48501 157 ft 24 kts 248°
2026-05-05 15:46 52.36399 13.48328 157 ft 12 kts 269°
2026-05-05 15:47 52.36459 13.48249 157 ft 13 kts 340°
2026-05-05 15:47 52.36517 13.48214 157 ft 14 kts 339°
2026-05-05 15:47 52.36643 13.48137 157 ft 11 kts 346°
2026-05-05 15:47 52.36694 13.48183 157 ft 9 kts 66°
2026-05-05 15:48 52.36716 13.48278 157 ft 22 kts 69°
2026-05-05 15:48 52.36795 13.48608 157 ft 71 kts 69°
2026-05-05 15:48 52.37055 13.49703 157 ft 133 kts 69°
2026-05-05 15:48 52.37435 13.51319 388 ft 159 kts 69°
2026-05-05 15:49 52.37829 13.53088 958 ft 175 kts 69°
2026-05-05 15:49 52.38267 13.55063 1506 ft 192 kts 68°
2026-05-05 15:49 52.38740 13.57223 2169 ft 210 kts 69°
2026-05-05 15:49 52.39291 13.59551 2777 ft 230 kts 64°
2026-05-05 15:50 52.39925 13.62031 3552 ft 239 kts 68°
2026-05-05 15:50 52.40561 13.64648 4227 ft 256 kts 68°
2026-05-05 15:50 52.41233 13.67456 4816 ft 271 kts 68°
2026-05-05 15:50 52.41922 13.70356 5643 ft 276 kts 68°
2026-05-05 15:51 52.42627 13.73340 6416 ft 282 kts 68°
2026-05-05 15:51 52.43335 13.76350 7259 ft 285 kts 69°
2026-05-05 15:51 52.44311 13.79204 8018 ft 288 kts 46°
2026-05-05 15:51 52.45766 13.81412 8798 ft 292 kts 41°
2026-05-05 15:52 52.47289 13.83693 9574 ft 296 kts 40°
2026-05-05 15:52 52.48831 13.85984 10253 ft 305 kts 40°
2026-05-05 15:52 52.50447 13.88370 10625 ft 322 kts 40°
2026-05-05 15:52 52.52149 13.90875 11177 ft 335 kts 40°
2026-05-05 15:53 52.53916 13.93475 11837 ft 342 kts 40°
2026-05-05 15:53 52.55703 13.96106 12597 ft 347 kts 40°
2026-05-05 15:53 52.57513 13.98774 13366 ft 352 kts 40°
2026-05-05 15:53 52.59330 14.01454 14071 ft 358 kts 40°
2026-05-05 15:54 52.61338 14.03882 14791 ft 359 kts 27°
2026-05-05 15:54 52.63534 14.05891 15513 ft 364 kts 27°
2026-05-05 15:54 52.65752 14.07954 16259 ft 368 kts 27°
2026-05-05 15:54 52.67991 14.10046 16988 ft 372 kts 27°
2026-05-05 15:55 52.70257 14.12166 17698 ft 376 kts 27°
2026-05-05 15:55 52.72551 14.14317 18376 ft 380 kts 27°
2026-05-05 15:55 52.74863 14.16488 18958 ft 385 kts 27°
2026-05-05 15:55 52.77203 14.18688 19534 ft 389 kts 27°
2026-05-05 15:56 52.79568 14.20914 20103 ft 393 kts 27°
2026-05-05 15:56 52.81961 14.23165 20671 ft 398 kts 27°
2026-05-05 15:56 52.84381 14.25444 21221 ft 402 kts 27°
2026-05-05 15:56 52.86809 14.27774 21751 ft 407 kts 31°
2026-05-05 15:57 52.88911 14.30862 22297 ft 413 kts 51°
2026-05-05 15:57 52.90399 14.34947 22805 ft 418 kts 69°
2026-05-05 15:57 52.91257 14.39551 23327 ft 420 kts 76°
2026-05-05 15:57 52.92044 14.44242 23756 ft 425 kts 76°
2026-05-05 15:58 52.92822 14.49001 24221 ft 428 kts 76°
2026-05-05 15:58 52.93587 14.53785 24658 ft 431 kts 77°
2026-05-05 15:58 52.94350 14.58610 25084 ft 434 kts 77°
2026-05-05 15:58 52.95116 14.63477 25514 ft 438 kts 77°
2026-05-05 15:59 52.95885 14.68385 25944 ft 441 kts 77°
2026-05-05 15:59 52.96657 14.73328 26354 ft 444 kts 77°
2026-05-05 15:59 52.97432 14.78307 26763 ft 447 kts 77°
2026-05-05 15:59 52.98209 14.83314 27165 ft 450 kts 77°
2026-05-05 16:00 52.98993 14.88375 27564 ft 453 kts 77°
2026-05-05 16:00 52.99780 14.93478 27948 ft 457 kts 77°
2026-05-05 16:00 53.00567 14.98593 28332 ft 460 kts 77°
2026-05-05 16:00 53.01358 15.03757 28710 ft 463 kts 77°
2026-05-05 16:01 53.02153 15.08959 29085 ft 466 kts 77°
2026-05-05 16:01 53.02942 15.14138 29480 ft 469 kts 77°
2026-05-05 16:01 53.03743 15.19411 29755 ft 474 kts 77°
2026-05-05 16:01 53.04549 15.24739 30078 ft 476 kts 77°
2026-05-05 16:02 53.05357 15.30095 30393 ft 479 kts 77°
2026-05-05 16:02 53.06165 15.35471 30697 ft 481 kts 77°
2026-05-05 16:02 53.06977 15.40889 30995 ft 483 kts 77°
2026-05-05 16:02 53.07788 15.46324 31297 ft 485 kts 77°
2026-05-05 16:03 53.08600 15.51780 31621 ft 487 kts 77°
2026-05-05 16:03 53.09413 15.57266 31913 ft 489 kts 77°
2026-05-05 16:03 53.10228 15.62779 32211 ft 491 kts 77°
2026-05-05 16:03 53.11042 15.68308 32502 ft 493 kts 77°
2026-05-05 16:04 53.11862 15.73878 32780 ft 496 kts 77°
2026-05-05 16:04 53.12678 15.79456 33072 ft 498 kts 77°
2026-05-05 16:04 53.13496 15.85068 33353 ft 500 kts 77°
2026-05-05 16:04 53.14316 15.90712 33643 ft 502 kts 77°
2026-05-05 16:05 53.15124 15.96283 33981 ft 501 kts 77°
2026-05-05 16:05 53.15938 16.01921 34320 ft 500 kts 77°
2026-05-05 16:05 53.16748 16.07546 34768 ft 497 kts 77°
2026-05-05 16:05 53.17550 16.13137 35168 ft 495 kts 77°
2026-05-05 16:06 53.18346 16.18706 35518 ft 493 kts 77°
2026-05-05 16:06 53.19137 16.24268 35864 ft 492 kts 77°
2026-05-05 16:06 53.19924 16.29811 36189 ft 491 kts 77°
2026-05-05 16:06 53.20706 16.35345 36495 ft 490 kts 77°
2026-05-05 16:07 53.21481 16.40848 36799 ft 489 kts 77°
2026-05-05 16:07 53.22258 16.46383 36914 ft 490 kts 77°
2026-05-05 16:07 53.23030 16.51906 36846 ft 487 kts 77°
2026-05-05 16:08 53.24561 16.62919 36854 ft 487 kts 77°
2026-05-05 16:08 53.26076 16.73942 36855 ft 486 kts 77°
2026-05-05 16:09 53.27571 16.84884 36857 ft 486 kts 78°
2026-05-05 16:09 53.29063 16.95907 36876 ft 486 kts 78°
2026-05-05 16:10 53.30550 17.06984 36858 ft 489 kts 78°
2026-05-05 16:10 53.32031 17.18094 36838 ft 489 kts 78°
2026-05-05 16:11 53.33492 17.29139 36859 ft 488 kts 78°
2026-05-05 16:12 53.36392 17.51319 36862 ft 487 kts 78°
2026-05-05 16:13 53.39951 17.79027 36841 ft 487 kts 78°
2026-05-05 16:13 53.41360 17.90150 36864 ft 488 kts 78°
2026-05-05 16:14 53.44162 18.12539 36856 ft 490 kts 79°
2026-05-05 16:15 53.46911 18.34865 36864 ft 490 kts 79°
2026-05-05 16:16 53.49610 18.57151 36859 ft 488 kts 79°
2026-05-05 16:17 53.51620 18.73949 36863 ft 488 kts 79°
2026-05-05 16:18 53.54617 18.90360 36861 ft 492 kts 71°
2026-05-05 16:19 53.57921 19.06640 36863 ft 488 kts 71°
2026-05-05 16:19 53.61178 19.22799 36872 ft 488 kts 71°
2026-05-05 16:20 53.65508 19.44492 36871 ft 488 kts 71°
2026-05-05 16:22 53.70865 19.71657 36871 ft 486 kts 72°
2026-05-05 16:23 53.75072 19.93319 36875 ft 486 kts 72°
2026-05-05 16:23 53.78213 20.09645 36868 ft 486 kts 72°
2026-05-05 16:24 53.80295 20.20545 36876 ft 486 kts 72°
2026-05-05 16:25 53.83385 20.36837 36883 ft 487 kts 73°
2026-05-05 16:25 53.86466 20.53214 36875 ft 486 kts 73°
2026-05-05 16:26 53.90549 20.75122 36877 ft 486 kts 73°
2026-05-05 16:27 53.92558 20.85998 36868 ft 486 kts 73°
2026-05-05 16:27 53.94573 20.96968 36891 ft 487 kts 73°
2026-05-05 16:28 53.96582 21.07975 36870 ft 488 kts 73°
2026-05-05 16:28 53.98575 21.18950 36868 ft 488 kts 73°
2026-05-05 16:29 54.00568 21.29984 36870 ft 488 kts 73°
2026-05-05 16:29 54.02547 21.40993 36536 ft 481 kts 74°
2026-05-05 16:30 54.03518 21.46420 36004 ft 478 kts 74°
2026-05-05 16:30 54.04478 21.51802 35570 ft 473 kts 74°
2026-05-05 16:30 54.05426 21.57132 35247 ft 467 kts 74°
2026-05-05 16:30 54.06373 21.62469 34972 ft 475 kts 74°
2026-05-05 16:31 54.07334 21.67904 34702 ft 484 kts 74°
2026-05-05 16:31 54.08295 21.73358 34315 ft 488 kts 74°
2026-05-05 16:31 54.09268 21.78895 33813 ft 488 kts 74°
2026-05-05 16:31 54.10241 21.84445 33212 ft 489 kts 74°
2026-05-05 16:32 54.11212 21.90005 32615 ft 490 kts 74°
2026-05-05 16:32 54.12182 21.95573 32036 ft 491 kts 74°
2026-05-05 16:32 54.13156 22.01185 31517 ft 493 kts 74°
2026-05-05 16:32 54.14123 22.06773 31018 ft 494 kts 74°
2026-05-05 16:33 54.15095 22.12403 30517 ft 495 kts 74°
2026-05-05 16:33 54.16065 22.18040 30033 ft 496 kts 74°
2026-05-05 16:33 54.17034 22.23710 29460 ft 497 kts 74°
2026-05-05 16:33 54.18000 22.29380 28856 ft 497 kts 75°
2026-05-05 16:34 54.18966 22.35057 28287 ft 497 kts 75°
2026-05-05 16:34 54.19916 22.40667 27745 ft 499 kts 75°
2026-05-05 16:34 54.20878 22.46365 27202 ft 499 kts 75°
2026-05-05 16:34 54.21836 22.52053 26667 ft 497 kts 75°
2026-05-05 16:35 54.22785 22.57710 26140 ft 493 kts 75°
2026-05-05 16:35 54.23724 22.63321 25626 ft 489 kts 75°
2026-05-05 16:35 54.24654 22.68897 25115 ft 486 kts 75°
2026-05-05 16:35 54.25573 22.74429 24627 ft 482 kts 75°
2026-05-05 16:36 54.26483 22.79922 24193 ft 479 kts 75°
2026-05-05 16:36 54.27387 22.85397 23759 ft 476 kts 75°
2026-05-05 16:36 54.28282 22.90833 23307 ft 473 kts 75°
2026-05-05 16:36 54.29169 22.96235 22753 ft 469 kts 75°
2026-05-05 16:37 54.30044 23.01581 22233 ft 464 kts 75°
2026-05-05 16:37 54.30898 23.06891 21730 ft 461 kts 75°
2026-05-05 16:37 54.31443 23.10382 21388 ft 458 kts 75°
2026-05-05 16:37 54.32266 23.15640 20888 ft 454 kts 75°
2026-05-05 16:38 54.33081 23.20851 20417 ft 451 kts 75°
2026-05-05 16:38 54.33888 23.26028 19936 ft 447 kts 76°
2026-05-05 16:38 54.34687 23.31166 19463 ft 444 kts 76°
2026-05-05 16:38 54.35731 23.37907 18852 ft 440 kts 76°
2026-05-05 16:39 54.36258 23.41315 18542 ft 437 kts 76°
2026-05-05 16:39 54.37033 23.46347 18076 ft 434 kts 76°
2026-05-05 16:39 54.37798 23.51332 17563 ft 431 kts 76°
2026-05-05 16:39 54.38557 23.56289 17042 ft 428 kts 76°
2026-05-05 16:40 54.39309 23.61215 16532 ft 425 kts 76°
2026-05-05 16:40 54.40054 23.66108 16037 ft 422 kts 76°
2026-05-05 16:40 54.40790 23.70961 15549 ft 419 kts 76°
2026-05-05 16:40 54.41523 23.75803 15068 ft 416 kts 76°
2026-05-05 16:41 54.42237 23.80540 14599 ft 414 kts 76°
2026-05-05 16:41 54.42953 23.85301 14135 ft 411 kts 76°
2026-05-05 16:41 54.43664 23.90040 13676 ft 408 kts 76°
2026-05-05 16:41 54.44365 23.94729 13172 ft 400 kts 77°
2026-05-05 16:42 54.45044 23.99290 12727 ft 388 kts 77°
2026-05-05 16:42 54.45702 24.03712 12314 ft 376 kts 77°
2026-05-05 16:42 54.46337 24.07999 11933 ft 364 kts 77°
2026-05-05 16:42 54.46953 24.12162 11582 ft 354 kts 77°
2026-05-05 16:43 54.47551 24.16228 11227 ft 348 kts 78°
2026-05-05 16:43 54.47805 24.20325 10863 ft 342 kts 95°
2026-05-05 16:43 54.47651 24.24398 10532 ft 338 kts 95°
2026-05-05 16:43 54.47548 24.28373 10174 ft 329 kts 95°
2026-05-05 16:44 54.47464 24.32262 9838 ft 321 kts 95°
2026-05-05 16:44 54.47390 24.36044 9512 ft 314 kts 94°
2026-05-05 16:44 54.47322 24.39767 9169 ft 309 kts 94°
2026-05-05 16:44 54.47257 24.43435 8847 ft 311 kts 94°
2026-05-05 16:45 54.47193 24.47144 8533 ft 310 kts 94°
2026-05-05 16:45 54.47128 24.50838 8226 ft 308 kts 94°
2026-05-05 16:45 54.47063 24.54504 7928 ft 306 kts 94°
2026-05-05 16:45 54.46997 24.58142 7633 ft 304 kts 94°
2026-05-05 16:46 54.46931 24.61771 7330 ft 303 kts 94°
2026-05-05 16:46 54.46863 24.65383 7013 ft 302 kts 94°
2026-05-05 16:46 54.46795 24.68985 6702 ft 301 kts 94°
2026-05-05 16:46 54.46726 24.72578 6385 ft 299 kts 94°
2026-05-05 16:47 54.46656 24.76148 6070 ft 298 kts 94°
2026-05-05 16:47 54.46587 24.79662 5749 ft 297 kts 94°
2026-05-05 16:47 54.46516 24.83201 5419 ft 296 kts 94°
2026-05-05 16:47 54.46444 24.86722 5120 ft 293 kts 95°
2026-05-05 16:48 54.46373 24.90190 4879 ft 284 kts 95°
2026-05-05 16:48 54.46302 24.93526 4625 ft 274 kts 95°
2026-05-05 16:48 54.46236 24.96730 4351 ft 265 kts 95°
2026-05-05 16:48 54.46168 24.99837 4073 ft 255 kts 94°
2026-05-05 16:49 54.46103 25.02830 3804 ft 246 kts 94°
2026-05-05 16:49 54.46039 25.05722 3540 ft 240 kts 94°
2026-05-05 16:49 54.45976 25.08580 3299 ft 239 kts 94°
2026-05-05 16:49 54.45912 25.11432 3071 ft 237 kts 94°
2026-05-05 16:50 54.46037 25.14238 2991 ft 237 kts 72°
2026-05-05 16:50 54.46861 25.16565 3031 ft 223 kts 44°
2026-05-05 16:50 54.48104 25.18041 3023 ft 220 kts 25°
2026-05-05 16:50 54.49471 25.19004 3010 ft 199 kts 20°
2026-05-05 16:51 54.50722 25.19830 2965 ft 190 kts 20°
2026-05-05 16:51 54.51941 25.20660 2762 ft 187 kts 20°
2026-05-05 16:51 54.53146 25.21486 2545 ft 185 kts 20°
2026-05-05 16:51 54.54339 25.22310 2296 ft 183 kts 20°
2026-05-05 16:52 54.55512 25.23118 2069 ft 178 kts 19°
2026-05-05 16:52 54.56594 25.23865 1884 ft 157 kts 19°
2026-05-05 16:52 54.57586 25.24551 1658 ft 151 kts 18°
2026-05-05 16:52 54.58555 25.25218 1489 ft 149 kts 19°
2026-05-05 16:53 54.59517 25.25875 1258 ft 148 kts 19°
2026-05-05 16:53 54.60466 25.26533 1049 ft 146 kts 19°
2026-05-05 16:53 54.61399 25.27183 842 ft 144 kts 19°
2026-05-05 16:53 54.62320 25.27827 657 ft 142 kts 20°
2026-05-05 16:54 54.63172 25.28407 608 ft 111 kts 22°
2026-05-05 16:54 54.63748 25.28807 638 ft 67 kts 21°
2026-05-05 16:54 54.64128 25.29072 655 ft 51 kts 22°
2026-05-05 16:54 54.64333 25.29210 658 ft 23 kts 20°
2026-05-05 16:55 54.64449 25.29268 658 ft 16 kts 344°
2026-05-05 16:55 54.64506 25.29115 658 ft 16 kts 295°
2026-05-05 16:55 54.64479 25.29009 659 ft 11 kts 200°
2026-05-05 16:55 54.64397 25.28954 658 ft 15 kts 202°
2026-05-05 16:56 54.64289 25.28877 657 ft 19 kts 201°
2026-05-05 16:56 54.64165 25.28789 651 ft 18 kts 206°
2026-05-05 16:56 54.64124 25.28612 647 ft 19 kts 268°
2026-05-05 16:56 54.64120 25.28398 643 ft 16 kts 268°
2026-05-05 16:57 54.64121 25.28239 644 ft 12 kts 258°
2026-05-05 16:57 54.64127 25.28168 645 ft 5 kts 323°
2026-05-05 16:57 54.64171 25.28141 644 ft 8 kts 343°
2026-05-05 16:57 54.64201 25.28125 640 ft 4 kts 343°
2026-05-05 16:58 54.64229 25.28119 640 ft 3 kts 357°
2026-05-05 16:58 54.64241 25.28119 644 ft 1 kts 359°
2026-05-05 16:58 54.64242 25.28119 644 ft 0 kts 359°